KD8DNO-13 Weather Reports


time (UTC)temp
C
wind
direction
speed
KPH
gust
KPH
rain 1hr
cm
rain 24hr
cm
rain mn
cm
humidity
%
barometer
mb
20260502210302 8 338 8.0 8.0 0.00 0.03 0.03 56 1017.2
20260502205802 8 0 6.4 9.7 0.00 0.03 0.03 56 1017.2
20260502205305 7 315 6.4 8.0 0.00 0.03 0.03 55 1017.2
20260502204802 7 315 3.2 6.4 0.00 0.03 0.03 55 1017.2
20260502204302 7 338 3.2 3.2 0.00 0.03 0.03 58 1017.2
20260502203803 7 338 6.4 8.0 0.00 0.03 0.03 57 1017.2
20260502203302 7 293 6.4 9.7 0.00 0.03 0.03 58 1017.2
20260502202803 7 338 3.2 6.4 0.00 0.03 0.03 57 1017.2
20260502202304 7 293 4.8 9.7 0.00 0.03 0.03 58 1017.2
20260502201802 7 293 3.2 6.4 0.00 0.03 0.03 60 1017.2
20260502201302 8 338 6.4 6.4 0.00 0.03 0.03 56 1017.2
20260502200802 8 270 4.8 8.0 0.00 0.03 0.03 57 1017.2
20260502200302 7 270 4.8 8.0 0.00 0.03 0.03 60 1017.2
20260502195802 7 248 3.2 8.0 0.00 0.03 0.03 60 1017.2
20260502195304 8 293 3.2 9.7 0.00 0.03 0.03 58 1017.2
20260502194802 8 0 6.4 6.4 0.00 0.03 0.03 59 1017.6
20260502194302 8 203 3.2 3.2 0.00 0.03 0.03 58 1017.6
20260502193803 8 23 3.2 3.2 0.00 0.03 0.03 57 1017.6
20260502193302 7 293 3.2 3.2 0.00 0.03 0.03 62 1017.6
20260502192806 7 338 6.4 8.0 0.00 0.03 0.03 61 1017.6
20260502192305 7 338 6.4 8.0 0.00 0.03 0.03 64 1017.6
20260502191803 7 0 3.2 6.4 0.00 0.03 0.03 64 1017.6
20260502191302 7 0 3.2 3.2 0.00 0.03 0.03 63 1017.6
20260502190802 8 23 6.4 6.4 0.00 0.03 0.03 62 1017.6
20260502190302 8 45 6.4 6.4 0.00 0.03 0.03 60 1017.6
20260502185803 7 293 6.4 8.0 0.00 0.03 0.03 57 1017.6
20260502185305 7 45 3.2 3.2 0.00 0.03 0.03 57 1017.6
20260502184802 7 315 6.4 6.4 0.00 0.03 0.03 57 1017.6
20260502184303 7 315 3.2 8.0 0.00 0.03 0.03 59 1017.6
20260502183802 7 0 8.0 8.0 0.00 0.03 0.03 57 1017.6
20260502183302 8 23 8.0 8.0 0.00 0.03 0.03 59 1017.6
20260502182802 8 293 8.0 8.0 0.00 0.03 0.03 53 1017.6
20260502182304 8 23 8.0 9.7 0.00 0.03 0.03 53 1017.6
20260502181802 8 315 4.8 4.8 0.00 0.03 0.03 52 1017.6
20260502181302 8 315 3.2 6.4 0.00 0.03 0.03 53 1017.9
20260502180803 8 338 8.0 8.0 0.00 0.03 0.03 56 1017.9
20260502180303 7 315 9.7 9.7 0.00 0.03 0.03 56 1017.9
20260502170303 7 270 3.2 3.2 0.00 0.03 0.03 56 1017.9
20260502164303 7 338 3.2 6.4 0.00 0.03 0.03 59 1017.9
20260502163803 7 293 6.4 6.4 0.00 0.03 0.03 58 1017.9
20260502163303 7 338 8.0 8.0 0.00 0.03 0.03 58 1017.9
20260502162802 7 293 6.4 6.4 0.00 0.03 0.03 58 1017.9
20260502162304 8 0 3.2 4.8 0.00 0.03 0.03 54 1017.9
20260502161803 7 338 3.2 8.0 0.00 0.03 0.03 56 1017.9
20260502161303 7 293 8.0 8.0 0.00 0.03 0.03 58 1017.9
20260502160803 8 270 6.4 6.4 0.00 0.03 0.03 56 1017.9
20260502160303 7 315 3.2 4.8 0.00 0.03 0.03 60 1017.9
20260502152305 6 270 4.8 4.8 0.00 0.03 0.03 61 1017.9
20260502151803 7 293 6.4 6.4 0.00 0.03 0.03 59 1017.9
20260502151303 7 338 9.7 9.7 0.00 0.03 0.03 59 1017.9
20260502150803 6 315 3.2 6.4 0.00 0.03 0.03 62 1017.9
20260502150303 7 338 8.0 8.0 0.00 0.03 0.03 61 1017.9
20260502130303 3 270 3.2 4.8 0.00 0.03 0.03 75 1017.6
20260502123804 3 293 3.2 3.2 0.00 0.03 0.03 79 1017.6
20260502123303 3 338 3.2 3.2 0.00 0.03 0.03 78 1017.6
20260502122803 2 270 4.8 4.8 0.00 0.03 0.03 77 1017.6
20260502122305 2 0 3.2 6.4 0.00 0.03 0.03 79 1017.2
20260502121803 2 293 3.2 6.4 0.00 0.03 0.03 80 1017.2
20260502121303 2 225 3.2 3.2 0.00 0.03 0.03 79 1017.2
20260502120803 2 270 3.2 6.4 0.00 0.03 0.03 78 1017.2
20260502120303 2 338 3.2 4.8 0.00 0.03 0.03 77 1017.2
20260502115803 2 338 3.2 3.2 0.00 0.03 0.03 80 1017.2
20260502115305 2 338 3.2 4.8 0.00 0.03 0.03 82 1017.2
20260502114303 1 338 4.8 4.8 0.00 0.03 0.03 87 1017.2
20260502113803 1 338 3.2 3.2 0.00 0.03 0.03 87 1017.2
20260502113303 1 293 3.2 3.2 0.00 0.03 0.03 88 1017.2
20260502112803 1 293 3.2 3.2 0.00 0.03 0.03 89 1017.2
20260502112305 1 338 3.2 3.2 0.00 0.03 0.03 90 1017.2
20260502111803 1 248 0.0 0.0 0.00 0.03 0.03 89 1017.2
20260502111303 1 315 0.0 0.0 0.00 0.03 0.03 89 1017.2
20260502110803 1 293 1.6 3.2 0.00 0.03 0.03 89 1017.2
20260502110303 1 293 0.0 0.0 0.00 0.03 0.03 88 1017.2
20260502105803 1 293 3.2 3.2 0.00 0.03 0.03 88 1017.2
20260502105306 1 293 3.2 3.2 0.00 0.03 0.03 88 1017.2
20260502104803 1 293 0.0 1.6 0.00 0.03 0.03 88 1016.9
20260502104303 1 293 3.2 3.2 0.00 0.03 0.03 88 1016.9
20260502103803 1 315 3.2 3.2 0.00 0.03 0.03 88 1016.9
20260502103303 1 270 3.2 3.2 0.00 0.03 0.03 88 1017.2
20260502102803 1 293 4.8 4.8 0.00 0.03 0.03 88 1017.2
20260502102306 1 270 4.8 4.8 0.00 0.03 0.03 88 1017.2
20260502101803 1 293 4.8 4.8 0.00 0.03 0.03 88 1017.2
20260502101303 1 293 3.2 3.2 0.00 0.03 0.03 89 1017.2
20260502100803 1 293 3.2 3.2 0.00 0.03 0.03 90 1017.2
20260502100303 1 338 3.2 3.2 0.00 0.03 0.03 90 1017.2
20260502091303 1 248 0.0 0.0 0.00 0.03 0.03 92 1017.2
20260502090803 1 270 0.0 0.0 0.00 0.03 0.03 91 1017.2
20260502090303 1 248 0.0 0.0 0.00 0.03 0.03 90 1017.2
20260502071303 2 293 3.2 3.2 0.00 0.03 0.03 97 1017.2
20260502070803 2 270 3.2 3.2 0.00 0.03 0.03 97 1017.2
20260502070303 2 248 1.6 3.2 0.00 0.03 0.03 98 1017.2
20260502065803 2 270 3.2 3.2 0.00 0.03 0.03 98 1017.2
20260502065306 2 248 3.2 3.2 0.00 0.03 0.03 98 1017.2
20260502064803 2 270 0.0 0.0 0.00 0.03 0.03 98 1017.2
20260502064303 2 248 3.2 3.2 0.00 0.03 0.03 98 1017.2
20260502063803 2 270 0.0 0.0 0.00 0.03 0.03 98 1017.2
20260502063303 2 0 0.0 1.6 0.00 0.03 0.03 98 1017.2
20260502062803 2 270 0.0 0.0 0.00 0.03 0.03 98 1017.2
20260502062306 2 293 0.0 0.0 0.00 0.03 0.03 97 1017.2
20260502061803 2 270 3.2 3.2 0.00 0.03 0.03 97 1017.2
20260502061303 2 270 0.0 0.0 0.00 0.03 0.03 97 1017.2
20260502060804 2 293 0.0 0.0 0.00 0.03 0.03 97 1017.2
20260502060303 2 270 0.0 0.0 0.00 0.03 0.03 97 1017.2
20260502055803 2 270 0.0 0.0 0.03 0.03 0.03 97 1017.2
20260502055305 2 270 0.0 0.0 0.03 0.03 0.03 97 1017.2
20260502054803 3 270 0.0 0.0 0.03 0.03 0.03 96 1017.6
20260502054304 3 338 0.0 0.0 0.03 0.03 0.03 96 1017.6
20260502053804 3 248 0.0 0.0 0.03 0.03 0.03 96 1017.6
20260502052801 3 203 0.0 0.0 0.03 0.03 0.03 97 1017.6
20260502052305 3 135 0.0 0.0 0.03 0.03 0.03 97 1017.6
20260502051801 3 203 0.0 0.0 0.03 0.03 0.03 98 1017.6
20260502051301 3 315 0.0 0.0 0.03 0.03 0.03 98 1017.6
20260502050802 3 225 0.0 0.0 0.03 0.03 0.03 98 1017.6
20260502050301 3 180 0.0 0.0 0.03 0.03 0.03 98 1017.6
20260502045801 3 270 0.0 0.0 0.00 0.00 0.00 98 1017.6
20260502045305 3 270 0.0 0.0 0.00 0.00 0.00 98 1017.6
20260502044801 3 270 0.0 0.0 0.00 0.00 0.00 97 1017.2
20260502044302 3 225 0.0 0.0 0.00 0.00 0.00 97 1017.2
20260502043802 3 225 0.0 0.0 0.00 0.00 0.00 98 1017.2
20260502043301 3 225 0.0 0.0 0.00 0.00 0.00 98 1017.2
20260502042801 3 158 0.0 0.0 0.00 0.00 0.00 98 1017.2
20260502042305 3 203 0.0 0.0 0.00 0.00 0.00 96 1017.6
20260502041801 3 113 0.0 0.0 0.00 0.00 0.00 96 1017.6
20260502041304 3 180 0.0 0.0 0.00 0.00 0.00 96 1017.6
20260502040801 3 158 0.0 0.0 0.00 0.00 0.00 95 1017.6
20260502040301 3 158 0.0 0.0 0.00 0.00 0.00 97 1017.6
20260502035802 3 180 0.0 0.0 0.00 0.48 0.48 96 1017.2
20260502035306 3 180 0.0 0.0 0.00 0.48 0.48 96 1017.2
20260502034302 3 180 0.0 0.0 0.00 0.48 0.48 94 1017.6
20260502033803 3 158 0.0 0.0 0.00 0.48 0.48 94 1017.6
20260502033302 4 113 0.0 0.0 0.00 0.48 0.48 94 1017.6
20260502032802 4 113 0.0 0.0 0.00 0.48 0.48 94 1017.6
20260502032305 4 158 0.0 0.0 0.00 0.48 0.48 94 1017.6
20260502031802 4 203 0.0 0.0 0.00 0.48 0.48 94 1017.6
20260502031302 4 225 0.0 0.0 0.00 0.48 0.48 95 1017.6
20260502030802 5 248 0.0 0.0 0.00 0.48 0.48 95 1017.6
20260502030302 5 248 0.0 0.0 0.00 0.48 0.48 95 1017.6
20260502025802 5 338 0.0 0.0 0.00 0.48 0.48 96 1017.6
20260502025306 5 113 0.0 0.0 0.00 0.48 0.48 96 1017.6
20260502024802 5 225 0.0 0.0 0.00 0.48 0.48 95 1017.6
20260502024302 5 248 0.0 0.0 0.00 0.48 0.48 95 1017.6
20260502023802 5 248 0.0 0.0 0.00 0.48 0.48 94 1017.6
20260502023302 5 225 0.0 0.0 0.00 0.48 0.48 94 1017.6
20260502022802 5 225 0.0 0.0 0.00 0.48 0.48 94 1017.6
20260502022306 5 225 0.0 0.0 0.00 0.48 0.48 94 1017.2
20260502021802 5 225 0.0 0.0 0.00 0.48 0.48 94 1017.2
20260502021302 5 203 0.0 0.0 0.00 0.48 0.48 94 1017.2
20260502020802 5 225 0.0 0.0 0.00 0.48 0.48 93 1017.2
20260502020303 5 180 0.0 0.0 0.03 0.48 0.48 93 1017.2
20260502015802 5 158 0.0 0.0 0.03 0.48 0.48 94 1016.9
20260502015305 5 90 0.0 0.0 0.03 0.48 0.48 93 1016.9
20260502014803 5 225 0.0 0.0 0.03 0.48 0.48 92 1016.9
20260502014303 5 180 0.0 0.0 0.03 0.48 0.48 91 1016.9
20260502013803 5 203 0.0 0.0 0.03 0.48 0.48 90 1016.9
20260502013302 5 203 0.0 0.0 0.03 0.48 0.48 89 1016.5
20260502012802 5 113 0.0 0.0 0.03 0.48 0.48 89 1016.5
20260502012306 6 158 0.0 0.0 0.03 0.48 0.48 88 1016.2
20260502011803 6 225 0.0 0.0 0.03 0.48 0.48 88 1016.2
20260502011302 6 203 0.0 0.0 0.03 0.48 0.48 85 1016.2
20260502010802 6 0 0.0 0.0 0.03 0.48 0.48 84 1016.2
20260502010302 6 338 3.2 4.8 0.00 0.46 0.46 82 1016.2
20260502005803 6 315 3.2 3.2 0.00 0.46 0.46 83 1016.2
20260502005305 6 293 1.6 3.2 0.00 0.46 0.46 84 1016.2
20260502004803 6 338 0.0 0.0 0.00 0.46 0.46 88 1016.2
20260502004303 6 90 0.0 0.0 0.00 0.46 0.46 87 1016.2
20260502003803 6 90 0.0 0.0 0.00 0.46 0.46 84 1016.2
20260502003303 7 90 0.0 0.0 0.00 0.46 0.46 82 1016.2
20260502002803 7 270 0.0 0.0 0.00 0.46 0.46 80 1016.2
20260502002306 7 338 3.2 3.2 0.00 0.46 0.46 78 1015.9
20260502001802 7 293 3.2 3.2 0.00 0.46 0.46 77 1015.9
20260502001303 7 293 3.2 3.2 0.00 0.46 0.46 79 1015.5
20260502000802 7 293 3.2 3.2 0.00 0.46 0.46 78 1015.5
20260502000303 7 270 3.2 3.2 0.00 0.46 0.46 77 1015.5
20260501235803 7 338 4.8 6.4 0.00 0.46 0.46 75 1015.5
20260501235305 7 293 0.0 1.6 0.00 0.46 0.46 75 1015.5
20260501234803 7 293 3.2 3.2 0.00 0.46 0.46 75 1015.2
20260501234303 7 293 3.2 3.2 0.00 0.46 0.46 75 1015.2
20260501233803 7 270 3.2 4.8 0.00 0.46 0.46 74 1015.2
20260501233303 7 315 3.2 3.2 0.00 0.46 0.46 75 1015.2
20260501232803 7 293 3.2 3.2 0.00 0.46 0.46 75 1015.2
20260501232305 7 315 3.2 3.2 0.00 0.46 0.46 73 1015.2
20260501231803 8 315 6.4 6.4 0.00 0.46 0.46 72 1015.2
20260501231303 8 338 4.8 8.0 0.00 0.46 0.46 71 1015.2
20260501230803 7 315 3.2 6.4 0.00 0.46 0.46 74 1015.2
20260501230302 8 293 3.2 3.2 0.00 0.46 0.46 72 1015.2
20260501225803 8 270 3.2 3.2 0.00 0.46 0.46 73 1015.2
20260501225305 9 0 3.2 4.8 0.00 0.46 0.46 69 1015.2
20260501224803 8 248 3.2 3.2 0.00 0.46 0.46 72 1015.2
20260501224303 8 293 4.8 4.8 0.00 0.46 0.46 73 1015.2
20260501223803 9 270 3.2 8.0 0.00 0.46 0.46 72 1015.2
20260501223303 9 248 4.8 6.4 0.00 0.46 0.46 73 1015.2
20260501222804 9 315 6.4 8.0 0.00 0.46 0.46 73 1015.2
20260501222305 9 315 9.7 9.7 0.00 0.46 0.46 72 1015.2
20260501221803 8 293 6.4 6.4 0.00 0.46 0.46 75 1015.2
20260501221303 8 293 4.8 4.8 0.00 0.46 0.46 76 1015.5
20260501220803 9 338 8.0 8.0 0.00 0.46 0.46 76 1015.5
20260501220303 7 248 3.2 6.4 0.00 0.46 0.46 81 1015.5
20260501215803 7 248 4.8 9.7 0.00 0.46 0.46 84 1015.2
20260501215305 7 315 6.4 6.4 0.00 0.46 0.46 86 1015.2
20260501214803 7 338 8.0 8.0 0.00 0.46 0.46 86 1015.2
20260501214303 7 293 3.2 6.4 0.00 0.46 0.46 87 1015.2
20260501213803 7 315 8.0 8.0 0.00 0.46 0.46 87 1015.2
20260501213303 6 338 8.0 8.0 0.00 0.46 0.46 86 1014.9
20260501212803 7 293 8.0 8.0 0.00 0.46 0.46 85 1014.9
20260501212305 7 315 6.4 8.0 0.00 0.46 0.46 83 1014.5
20260501211803 7 293 8.0 8.0 0.00 0.46 0.46 81 1014.5
20260501211303 7 293 6.4 6.4 0.00 0.46 0.46 79 1014.2
20260501210803 7 293 6.4 6.4 0.00 0.46 0.46 79 1014.2